Eastsound, WA

5:22 PM PST on December 03, 2016 (GMT -0800)
Orcas Island

Weather History for KORS - May, 2013

Change the Weather History Date:

Thursday, May 16, 2013

  Actual Average (KBLI) Record (KBLI)
Temperature  
Mean Temperature 54 °F 54 °F  
Max Temperature 59 °F 62 °F 78 °F (1952)
Min Temperature 50 °F 46 °F 36 °F (2002)
Degree Days  
Heating Degree Days 10 11  
Month to date heating degree days 200  
Cooling Degree Days 0 0  
Month to date cooling degree days 0  
Year to date cooling degree days 0  
Growing Degree Days 4 (Base 50)    
Moisture  
Dew Point 51 °F    
Average Humidity 93    
Maximum Humidity 100    
Minimum Humidity 77    
Precipitation  
Precipitation 0.00 in 0.08 in 1.52 in (1988)
Month to date precipitation 1.28  
Year to date precipitation 14.88  
Sea Level Pressure  
Sea Level Pressure 29.95 in    
Wind  
Wind Speed 1 mph (NNW)    
Max Wind Speed 8 mph    
Max Gust Speed -    
Visibility 7 miles    
Events Rain    
T = Trace of Precipitation, MM = Missing Value Source: NWS Daily Summary

Daily Weather History Graph

Daily Weather History Graph

Search for Another Location

Airport or City:

Trip Planner

Search our weather history database for the weather conditions in past years. The results will help you decide how hot, cold, wet, or windy it might be!

Date:

Astronomy

May. 16, 2013 Rise Set
Actual Time 5:28 AM PDT 8:48 PM PDT
Civil Twilight 4:50 AM PDT 9:26 PM PDT
Nautical Twilight 4:00 AM PDT 10:16 PM PDT
Astronomical Twilight 2:55 AM PDT 11:22 PM PDT
Moon 11:17 AM PDT (5/16) 1:03 AM PDT (5/16)
Length of Visible Light 16h 35m
Length of Day
15h 19m
Waxing Crescent, 36% of the Moon is Illuminated
May 16
Waxing Crescent
May 17
First Quarter
May 24
Full
May 31
Last Quarter
Jun 8
New

Hourly Weather History & Observations

Time (PDT) Temp. Dew Point Humidity Pressure Visibility Wind Dir Wind Speed Gust Speed Precip Events Conditions
12:15 AM 50.0 °F 50.0 °F 100% 30.01 in 2.5 mi Calm Calm - N/A   Mostly Cloudy
12:35 AM 50.0 °F 50.0 °F 100% 30.01 in 4.0 mi Calm Calm - N/A   Mostly Cloudy
12:55 AM 50.0 °F 50.0 °F 100% 30.01 in 3.0 mi Calm Calm - N/A   Overcast
1:15 AM 50.0 °F 50.0 °F 100% 30.01 in 3.0 mi Calm Calm - N/A Rain Light Rain
1:35 AM 50.0 °F 50.0 °F 100% 30.00 in 2.5 mi Calm Calm - N/A   Overcast
1:55 AM 50.0 °F 50.0 °F 100% 30.00 in 4.0 mi Calm Calm - N/A   Overcast
2:15 AM 50.0 °F 50.0 °F 100% 30.00 in 4.0 mi Calm Calm - N/A   Overcast
2:35 AM 50.0 °F 50.0 °F 100% 30.00 in 4.0 mi Calm Calm - N/A   Overcast
2:55 AM 50.0 °F 50.0 °F 100% 29.99 in 5.0 mi Calm Calm - N/A   Overcast
3:15 AM 50.0 °F 50.0 °F 100% 29.99 in 4.0 mi Calm Calm - N/A   Overcast
3:35 AM 50.0 °F 50.0 °F 100% 29.99 in 5.0 mi Calm Calm - N/A   Overcast
3:55 AM 50.0 °F 50.0 °F 100% 29.99 in 3.0 mi Calm Calm - N/A   Overcast
4:15 AM 50.0 °F 50.0 °F 100% 29.98 in 5.0 mi Calm Calm - N/A   Overcast
4:35 AM 50.0 °F 50.0 °F 100% 29.98 in 3.0 mi Calm Calm - N/A   Overcast
4:55 AM 50.0 °F 50.0 °F 100% 29.98 in 4.0 mi Calm Calm - N/A   Overcast
5:15 AM 50.0 °F 50.0 °F 100% 29.98 in 3.0 mi Calm Calm - N/A   Overcast
5:35 AM 50.0 °F 50.0 °F 100% 29.98 in 2.0 mi Calm Calm - N/A   Overcast
5:55 AM 50.0 °F 50.0 °F 100% 29.98 in 4.0 mi North - - N/A Rain Light Rain
6:15 AM 50.0 °F 50.0 °F 100% 29.98 in 1.5 mi Calm Calm - N/A Rain Light Rain
6:35 AM 50.0 °F 50.0 °F 100% 29.98 in 1.2 mi North - - N/A Rain Light Rain
6:55 AM 50.0 °F 50.0 °F 100% 29.98 in 3.0 mi Calm Calm - N/A   Overcast
7:15 AM 50.0 °F 50.0 °F 100% 29.98 in 5.0 mi Calm Calm - N/A   Overcast
7:35 AM 51.8 °F 51.8 °F 100% 29.99 in 3.0 mi East 3.5 mph - N/A   Overcast
7:55 AM 50.0 °F 50.0 °F 100% 29.99 in 2.0 mi Calm Calm - N/A Rain Light Rain
8:15 AM 51.8 °F 51.8 °F 100% 29.99 in 3.0 mi ENE 5.8 mph - N/A Rain Light Rain
8:35 AM 51.8 °F 51.8 °F 100% 29.99 in 6.0 mi North - - N/A   Overcast
8:55 AM 51.8 °F 50.0 °F 94% 29.99 in 7.0 mi East 4.6 mph - N/A   Overcast
9:15 AM 53.6 °F 50.0 °F 88% 29.99 in 9.0 mi Calm Calm - N/A   Overcast
9:35 AM 53.6 °F 51.8 °F 94% 29.99 in 9.0 mi ENE 3.5 mph - N/A   Overcast
9:55 AM 53.6 °F 51.8 °F 94% 29.99 in 9.0 mi Calm Calm - N/A   Overcast
10:15 AM 53.6 °F 51.8 °F 94% 29.99 in 9.0 mi ENE 4.6 mph - N/A   Overcast
10:35 AM 53.6 °F 50.0 °F 88% 29.99 in 8.0 mi NE 5.8 mph - N/A   Overcast
10:55 AM 55.4 °F 51.8 °F 88% 29.99 in 9.0 mi Calm Calm - N/A   Overcast
11:15 AM 55.4 °F 51.8 °F 88% 29.99 in 8.0 mi Calm Calm - N/A   Overcast
11:35 AM 55.4 °F 51.8 °F 88% 29.98 in 8.0 mi North 4.6 mph - N/A   Overcast
12:15 PM 55.4 °F 51.8 °F 88% 29.98 in 8.0 mi North 3.5 mph - N/A   Mostly Cloudy
12:35 PM 57.2 °F 53.6 °F 88% 29.98 in 10.0 mi West 3.5 mph - N/A   Mostly Cloudy
12:55 PM 57.2 °F 53.6 °F 88% 29.97 in 10.0 mi WSW 4.6 mph - N/A   Mostly Cloudy
1:15 PM 55.4 °F 51.8 °F 88% 29.97 in 8.0 mi North 8.1 mph - N/A   Overcast
1:35 PM 53.6 °F 51.8 °F 94% 29.97 in 7.0 mi North 6.9 mph - N/A   Overcast
1:55 PM 57.2 °F 53.6 °F 88% 29.96 in 8.0 mi NNW 5.8 mph - N/A   Overcast
2:15 PM 57.2 °F 53.6 °F 88% 29.96 in 9.0 mi NW 4.6 mph - N/A   Mostly Cloudy
2:35 PM 57.2 °F 53.6 °F 88% 29.95 in 9.0 mi NW 5.8 mph - N/A   Scattered Clouds
2:55 PM 57.2 °F 53.6 °F 88% 29.95 in 10.0 mi NW 5.8 mph - N/A   Clear
3:15 PM 57.2 °F 53.6 °F 88% 29.94 in 9.0 mi WNW 5.8 mph - N/A   Clear
3:35 PM 59.0 °F 53.6 °F 82% 29.93 in 10.0 mi NW 5.8 mph - N/A   Clear
3:55 PM 57.2 °F 53.6 °F 88% 29.93 in 10.0 mi NNW 5.8 mph - N/A   Clear
4:15 PM 57.2 °F 53.6 °F 88% 29.92 in 10.0 mi NNW 5.8 mph - N/A   Clear
4:35 PM 57.2 °F 53.6 °F 88% 29.92 in 9.0 mi North 5.8 mph - N/A   Clear
4:55 PM 57.2 °F 51.8 °F 82% 29.91 in 9.0 mi North 4.6 mph - N/A   Clear
5:15 PM 57.2 °F 53.6 °F 88% 29.91 in 10.0 mi NNW 5.8 mph - N/A   Clear
5:35 PM 57.2 °F 53.6 °F 88% 29.90 in 9.0 mi NNW 6.9 mph - N/A   Clear
5:55 PM 57.2 °F 53.6 °F 88% 29.90 in 9.0 mi NNW 4.6 mph - N/A   Clear
6:15 PM 57.2 °F 53.6 °F 88% 29.89 in 9.0 mi North 5.8 mph - N/A   Clear
6:35 PM 59.0 °F 51.8 °F 77% 29.89 in 10.0 mi Calm Calm - N/A   Clear
6:55 PM 57.2 °F 51.8 °F 82% 29.89 in 10.0 mi NW 4.6 mph - N/A   Clear
7:15 PM 57.2 °F 51.8 °F 82% 29.89 in 9.0 mi North 3.5 mph - N/A   Clear
7:35 PM 57.2 °F 51.8 °F 82% 29.89 in 10.0 mi Calm Calm - N/A   Clear
7:55 PM 57.2 °F 50.0 °F 77% 29.89 in 8.0 mi Calm Calm - N/A   Clear
8:15 PM 57.2 °F 51.8 °F 82% 29.89 in 9.0 mi Calm Calm - N/A   Clear
8:35 PM 55.4 °F 50.0 °F 82% 29.89 in 9.0 mi Calm Calm - N/A   Clear
8:55 PM 53.6 °F 50.0 °F 88% 29.90 in 9.0 mi Calm Calm - N/A   Clear
9:15 PM 53.6 °F 50.0 °F 88% 29.90 in 3.0 mi Calm Calm - N/A   Clear
9:35 PM 51.8 °F 50.0 °F 94% 29.90 in 9.0 mi Calm Calm - N/A   Clear
9:55 PM 51.8 °F 50.0 °F 94% 29.91 in 10.0 mi Calm Calm - N/A   Clear
10:15 PM 50.0 °F 48.2 °F 94% 29.91 in 10.0 mi South 3.5 mph - N/A   Clear
10:35 PM 50.0 °F 48.2 °F 94% 29.91 in 10.0 mi Calm Calm - N/A   Clear
10:55 PM 50.0 °F 50.0 °F 100% 29.91 in 10.0 mi Calm Calm - N/A   Clear
11:15 PM 50.0 °F 50.0 °F 100% 29.91 in 9.0 mi Calm Calm - N/A Rain Light Rain
11:35 PM 50.0 °F 50.0 °F 100% 29.91 in 10.0 mi North - - N/A Rain Light Rain
11:55 PM 50.0 °F 48.2 °F 94% 29.91 in 10.0 mi Calm Calm - N/A   Clear